Regional Weather Roundup
Issued by NWS

Home | Current Version | Previous Version | Graphics & Text | Print | Product List | Glossary On
Versions: 1 2 3 4 5 6 7 8 9 10 11 12 13 14 15 16 17 18 19 20 21 22 23 24 25 26 27
000
ASUS45 KTFX 210410
RWRMT
MONTANA REGIONAL WEATHER ROUNDUP
NATIONAL WEATHER SERVICE GREAT FALLS MT
900 PM MST MON FEB 20 2017

NOTE: "FAIR" INDICATES FEW OR NO CLOUDS BELOW 12000 FEET WITH NO
SIGNIFICANT WEATHER AND/OR OBSTRUCTIONS TO VISIBILITY.

MTZ001>007-043-210500-
WEST OF THE DIVIDE

CITY           SKY/WX    TMP DP  RH WIND       PRES   REMARKS
KALISPELL      CLOUDY    38  34  85 S9        29.61S WCI  31
MISSOULA       CLOUDY    34  34 100 NW5       29.73R
BUTTE          CLOUDY    39  27  62 N5        29.72R
MULLAN PASS    PTCLDY    28  25  88 W8G20     29.63S WCI  20
ANACONDA         N/A     43  28  56 S15G22    29.71R
DEER LODGE       N/A     43  23  45 SW7       29.70R
EUREKA           N/A     39  34  81 S9        29.57R
HAMILTON         N/A     36  34  93 CALM      29.71R
LIBBY            N/A     39  36  87 S6        29.59R
PLAINS           N/A     34  30  85 CALM      29.69S
RONAN            N/A     39  33  79 SE2       29.73R
THOMPSON FALLS   N/A     40  33  76 CALM      29.73R
$$

MTZ008-052>055-210500-
SOUTHWEST MONTANA

CITY           SKY/WX    TMP DP  RH WIND       PRES   REMARKS
BOZEMAN        PTCLDY    43  30  60 SW10      29.72S
DILLON         CLOUDY    37  30  75 SW12      29.75S WCI  29
W YELLOWSTONE  MIX PCPN  32  32 100 SW16G23   29.85S WCI  21
ENNIS          MOCLDY    41  30  65 S18G25    29.80F
$$

MTZ009-010-012-014-046-048-049-054-210500-
EAST SLOPES AND CENTRAL MONTANA

CITY           SKY/WX    TMP DP  RH WIND       PRES   REMARKS
CUT BANK       CLEAR     33  28  81 SW8       29.55S WCI  26
GREAT FALLS    PTCLDY    39  32  76 SW15      29.62S WCI  31
MALMSTROM AFB  CLEAR     33  30  90 SW12      29.63R WCI  24
HELENA         PTCLDY    47  27  45 SW10      29.63F
AUGUSTA          N/A     36  33  90 SW17      29.60S WCI  26
BOWMANS CRNR     N/A     34  31  90 W6        29.61S WCI  29
CHOTEAU          N/A     39  34  81 SW18G29   29.59F WCI  30
CONRAD           N/A     36  34  92 SE10      29.63S WCI  28
POWER            N/A     35  32  86 S12       29.59F WCI  27
RAYNESFORD       N/A     35  31  82 CALM      29.63S
ULM              N/A     37  31  81 MISG      29.63R
$$

MTZ011-013-016-021-045-047-050-051-210500-
NORTH CENTRAL MONTANA

CITY           SKY/WX    TMP DP  RH WIND       PRES   REMARKS
HAVRE          MOCLDY    43  37  79 SW13      29.58R
LEWISTOWN      CLOUDY    35  32  88 SE9       29.66S WCI  28
N BAR RANCH      N/A     39  30  70 NW7       29.69R
CHINOOK          N/A     37  34  87 E3        29.58S
DENTON         MOCLDY    37  32  82 SW10      29.61R WCI  30
FORT BENTON      N/A     41  32  70 N6        29.62S
GEYSER           N/A     36  30  77 SW9       29.62F WCI  29
GRASS RANGE      N/A     36  34  94 S10       29.62F WCI  28
JUDITH GAP     MOCLDY    41  30  65 MISG      29.67S
ROY              N/A     43  34  70 MISG      29.61F
STANFORD         N/A     39  32  76 W14       29.64S WCI  31
WINIFRED         N/A     40  35  81 SW7       29.63R
$$

MTZ017>020-022>027-061-062-210500-
NORTHEAST MONTANA

CITY           SKY/WX    TMP DP  RH WIND       PRES   REMARKS
GLASGOW        MOCLDY    44  38  79 S9        29.59F
JORDAN           N/A     38  33  82 CALM      29.62F
SIDNEY         LGT RAIN  41  30  65 S7        29.65S
WOLF POINT     CLOUDY    38  34  85 CALM      29.62F
PLENTYWOOD       N/A     39  30  70 SE7       29.64S
POPLAR           N/A     43  36  75 S5        29.64F
SCOBEY           N/A     37  24  60 SW1       29.63S
$$

MTZ028>42-056>058-210500-
SOUTHCENTRAL AND SOUTHEAST MONTANA

CITY           SKY/WX    TMP DP  RH WIND       PRES   REMARKS
BAKER          PTCLDY    42  27  55 S3        29.67F
BILLINGS       MOCLDY    48  31  51 W15       29.68R
LIVINGSTON     CLOUDY    47  29  49 SW28G37   29.68S
MILES CITY     PTCLDY    45  29  53 S8        29.65R
BIG TIMBER     CLOUDY    46  28  49 W15       29.73R
EKALAKA          N/A     54  23  30 SE5       29.69F
FORSYTH          N/A     52  27  37 SW8       29.65R
HARLOWTON      MOCLDY    39  31  74 W15       29.69R WCI  30
LAUREL           N/A     43  26  51 SW2       29.71R
ROUNDUP          N/A     47  29  50 S7        29.61S
$$

REGIONAL REPORTS...DAKOTAS

CITY           SKY/WX    TMP DP  RH WIND       PRES   REMARKS
WILLISTON      CLOUDY    36  30  79 N8        29.65F WCI  30
MINOT          CLEAR     36  31  82 SW12      29.69S WCI  28
DICKINSON      CLOUDY    39  28  64 E3        29.66F
BEACH            N/A    N/A N/A N/A MISG        N/A
CROSBY         MOCLDY    34  34 100 S9        29.68R WCI  26
TIOGA          MOCLDY    32  32 100 E3        29.69S
WATFORD CITY     N/A     36  28  75 E8        29.65F WCI  29
BISMARCK       PTCLDY    33  30  88 SE6       29.75S WCI  28
GRAND FORKS    CLEAR     32  28  85 SW5       29.72S
FARGO          CLEAR     33  32  96 S7        29.76S FOG     WCI  27
BUFFALO SD       N/A     46  26  45 S9        29.62F
RAPID CITY     PTCLDY    52  30  43 SW14      29.78S
$$

REGIONAL REPORTS...WYOMING/IDAHO/WASHINGTON

CITY           SKY/WX    TMP DP  RH WIND       PRES   REMARKS
GILLETTE       CLOUDY    49  30  48 SW25G35   29.76S
SHERIDAN       PTCLDY    58  25  28 SE12      29.72R
BUFFALO WY     CLOUDY    52  26  36 SW32G51   29.72F
CODY           CLEAR     42  30  62 N7        29.80F
YELLOWSTONE LA   N/A     31  31 100 CALM      29.89S
IDAHO FALLS    CLOUDY    40  35  83 S14       29.88R
SALMON         CLOUDY    41  34  75 S15       29.74S
BOISE          CLOUDY    49  39  68 SE10      29.78S
SPOKANE        MOCLDY    35  33  92 SW13      29.68R WCI  26
$$

REGIONAL REPORTS...ALBERTA

CITY           SKY/WX    TMP DP  RH WIND       PRES   REMARKS
EDMONTON       CLOUDY    30  27  86 CALM      29.62R
CALGARY        FOG       28  28 100 N7        29.53R VSB 5/8 WCI  21
LETHBRIDGE     CLOUDY    34  30  86 SW9       29.51R WCI  26
MEDICINE HAT   MOCLDY    39  28  65 NE5       29.54S
WATERTON GATE    N/A     36  32  87 SW14G21     N/A  WCI  27
CARDSTON         N/A     32  28  86 S2          N/A
MILK RIVER       N/A     36  32  87 SW10        N/A  WCI  28
ONEFOUR          N/A     32  28  86 E8          N/A  WCI  25
$$

REGIONAL REPORTS...SASKATCHEWAN

CITY           SKY/WX    TMP DP  RH WIND       PRES   REMARKS
SWIFT CURRENT  CLOUDY    34  28  80 E9        29.57F WCI  26
REGINA         CLOUDY    30  30 100 NE5       29.64R
SASKATOON      CLOUDY    32  30  93 NW6       29.65S WCI  26
CYPRESS HILLS    N/A     32  23  69 S6          N/A  WCI  26
VAL MARIE        N/A     34  27  75 N5          N/A
ROCKGLEN         N/A     39  27  60 SE7         N/A
ASSINIBOIA       N/A     32  30  93 CALM        N/A
$$




USA.gov is the U.S. government's official web portal to all federal, state and local government web resources and services.